| time (UTC) | temp F | wind direction | speed knots | gust knots | rain 1hr in | rain 24hr in | rain mn in | humidity % | barometer mb |
| 20260902014215 | 76 | 188 | 5.2 | 7.8 | 0.00 | 0.00 | 0.00 | 44 | 1017.8 |
| 20260902013215 | 76 | 180 | 4.3 | 7.8 | 0.00 | 0.00 | 0.00 | 43 | 1017.5 |
| 20260902012215 | 77 | 159 | 4.3 | 9.6 | 0.00 | 0.00 | 0.00 | 43 | 1017.7 |
| 20260902011235 | 77 | 153 | 7.8 | 13.0 | 0.00 | 0.00 | 0.00 | 42 | 1017.7 |
| 20260902010215 | 77 | 156 | 5.2 | 10.4 | 0.00 | 0.00 | 0.00 | 41 | 1018.0 |
| 20260902005215 | 78 | 151 | 7.0 | 10.4 | 0.00 | 0.00 | 0.00 | 40 | 1018.1 |
| 20260902004215 | 77 | 161 | 5.2 | 11.3 | 0.00 | 0.01 | 0.00 | 40 | 1018.2 |
| 20260902003215 | 76 | 142 | 5.2 | 7.8 | 0.00 | 0.01 | 0.00 | 45 | 1017.6 |
| 20260902002235 | 76 | 112 | 8.7 | 13.0 | 0.00 | 0.01 | 0.00 | 47 | 1017.7 |
| 20260902001235 | 76 | 136 | 8.7 | 14.8 | 0.00 | 0.01 | 0.00 | 46 | 1017.8 |
| 20260902000215 | 77 | 155 | 8.7 | 13.9 | 0.00 | 0.01 | 0.00 | 45 | 1018.1 |
| 20260901235235 | 77 | 133 | 7.8 | 13.0 | 0.00 | 0.01 | 0.00 | 45 | 1018.4 |
| 20260901234215 | 76 | 117 | 6.1 | 9.6 | 0.00 | 0.01 | 0.00 | 46 | 1018.3 |
| 20260901233215 | 76 | 126 | 6.1 | 11.3 | 0.00 | 0.01 | 0.00 | 46 | 1018.3 |
| 20260901232215 | 77 | 147 | 4.3 | 11.3 | 0.00 | 0.01 | 0.00 | 45 | 1018.6 |
| 20260901231215 | 77 | 136 | 3.5 | 12.2 | 0.00 | 0.01 | 0.00 | 43 | 1018.6 |
| 20260901230215 | 77 | 104 | 8.7 | 12.2 | 0.00 | 0.01 | 0.00 | 43 | 1018.4 |
| 20260901225217 | 77 | 156 | 4.3 | 11.3 | 0.00 | 0.01 | 0.00 | 44 | 1018.5 |
| 20260901224217 | 77 | 153 | 7.8 | 13.0 | 0.00 | 0.01 | 0.00 | 45 | 1018.7 |
| 20260901223217 | 78 | 154 | 8.7 | 12.2 | 0.00 | 0.01 | 0.00 | 44 | 1019.3 |
| 20260901222217 | 77 | 164 | 1.7 | 8.7 | 0.00 | 0.01 | 0.00 | 47 | 1019.3 |
| 20260901221217 | 76 | 157 | 8.7 | 12.2 | 0.00 | 0.01 | 0.00 | 48 | 1019.3 |
| 20260901220217 | 75 | 111 | 5.2 | 9.6 | 0.00 | 0.01 | 0.00 | 48 | 1019.2 |
| 20260901215217 | 76 | 96 | 6.1 | 9.6 | 0.00 | 0.01 | 0.00 | 47 | 1019.8 |
| 20260901214217 | 78 | 167 | 7.0 | 12.2 | 0.00 | 0.01 | 0.00 | 42 | 1020.2 |
| 20260901213217 | 78 | 167 | 6.1 | 15.6 | 0.00 | 0.01 | 0.00 | 42 | 1020.3 |
| 20260901212216 | 74 | 139 | 7.0 | 10.4 | 0.00 | 0.01 | 0.00 | 47 | 1020.0 |
| 20260901211217 | 75 | 144 | 7.8 | 12.2 | 0.00 | 0.01 | 0.00 | 51 | 1020.5 |
| 20260901210216 | 76 | 250 | 3.5 | 7.8 | 0.00 | 0.01 | 0.00 | 45 | 1021.0 |
| 20260901205237 | 77 | 172 | 7.0 | 12.2 | 0.00 | 0.01 | 0.00 | 43 | 1020.9 |
| 20260901204236 | 76 | 187 | 5.2 | 7.8 | 0.00 | 0.01 | 0.00 | 47 | 1021.1 |
| 20260901203237 | 77 | 181 | 7.0 | 12.2 | 0.00 | 0.01 | 0.00 | 44 | 1021.0 |
| 20260901202216 | 77 | 220 | 6.1 | 16.5 | 0.00 | 0.01 | 0.00 | 45 | 1021.1 |
| 20260901201217 | 76 | 178 | 7.0 | 12.2 | 0.00 | 0.01 | 0.00 | 46 | 1021.4 |
| 20260901200216 | 76 | 168 | 6.1 | 10.4 | 0.00 | 0.01 | 0.00 | 50 | 1021.8 |
| 20260901195216 | 75 | 130 | 7.8 | 11.3 | 0.00 | 0.01 | 0.00 | 51 | 1021.8 |
| 20260901194217 | 75 | 143 | 3.5 | 8.7 | 0.00 | 0.01 | 0.00 | 51 | 1021.7 |
| 20260901193237 | 74 | 143 | 6.1 | 13.9 | 0.00 | 0.01 | 0.00 | 51 | 1021.8 |
| 20260901192216 | 74 | 94 | 6.1 | 10.4 | 0.00 | 0.01 | 0.00 | 52 | 1021.9 |
| 20260901191236 | 73 | 105 | 6.1 | 8.7 | 0.00 | 0.01 | 0.00 | 52 | 1022.0 |
| 20260901190216 | 72 | 138 | 3.5 | 10.4 | 0.00 | 0.01 | 0.00 | 54 | 1021.9 |
| 20260901185216 | 72 | 108 | 7.0 | 9.6 | 0.00 | 0.01 | 0.00 | 53 | 1021.9 |
| 20260901184216 | 72 | 99 | 3.5 | 7.8 | 0.00 | 0.01 | 0.00 | 54 | 1022.0 |
| 20260901183236 | 72 | 103 | 4.3 | 7.8 | 0.00 | 0.01 | 0.00 | 54 | 1022.2 |
| 20260901182216 | 71 | 142 | 6.1 | 8.7 | 0.00 | 0.01 | 0.00 | 56 | 1022.4 |
| 20260901181216 | 70 | 111 | 3.5 | 7.0 | 0.00 | 0.01 | 0.00 | 59 | 1022.2 |
| 20260901180216 | 69 | 109 | 1.7 | 5.2 | 0.00 | 0.01 | 0.00 | 59 | 1022.3 |
| 20260901175216 | 69 | 92 | 2.6 | 3.5 | 0.00 | 0.01 | 0.00 | 59 | 1022.5 |
| 20260901174236 | 69 | 101 | 4.3 | 7.0 | 0.00 | 0.01 | 0.00 | 58 | 1022.5 |
| 20260901173216 | 69 | 115 | 4.3 | 7.8 | 0.00 | 0.01 | 0.00 | 58 | 1022.5 |
| 20260901172216 | 68 | 89 | 5.2 | 7.8 | 0.00 | 0.01 | 0.00 | 59 | 1022.0 |
| 20260901171216 | 68 | 92 | 5.2 | 7.8 | 0.00 | 0.01 | 0.00 | 61 | 1022.2 |
| 20260901170216 | 68 | 151 | 5.2 | 7.8 | 0.00 | 0.01 | 0.00 | 60 | 1022.4 |
| 20260901165216 | 68 | 123 | 5.2 | 8.7 | 0.00 | 0.01 | 0.00 | 61 | 1022.1 |
| 20260901164216 | 67 | 144 | 3.5 | 4.3 | 0.00 | 0.01 | 0.00 | 62 | 1022.1 |
| 20260901163216 | 65 | 131 | 6.1 | 9.6 | 0.00 | 0.01 | 0.00 | 65 | 1021.7 |
| 20260901162216 | 65 | 90 | 6.1 | 7.0 | 0.00 | 0.01 | 0.00 | 65 | 1021.6 |
| 20260901161216 | 66 | 106 | 5.2 | 7.8 | 0.00 | 0.01 | 0.00 | 65 | 1021.7 |
| 20260901160216 | 67 | 156 | 2.6 | 6.1 | 0.00 | 0.01 | 0.00 | 64 | 1021.6 |
| 20260901155216 | 66 | 152 | 3.5 | 4.3 | 0.00 | 0.01 | 0.00 | 63 | 1021.6 |
| 20260901154216 | 66 | 149 | 0.0 | 0.9 | 0.00 | 0.01 | 0.00 | 63 | 1021.6 |
| 20260901153216 | 65 | 177 | 0.0 | 1.7 | 0.00 | 0.01 | 0.00 | 66 | 1021.7 |
| 20260901152216 | 64 | 177 | 0.9 | 2.6 | 0.00 | 0.01 | 0.00 | 68 | 1021.3 |
| 20260901151216 | 63 | 188 | 1.7 | 2.6 | 0.00 | 0.01 | 0.00 | 68 | 1021.3 |
| 20260901150236 | 62 | 220 | 2.6 | 4.3 | 0.00 | 0.01 | 0.00 | 71 | 1021.4 |
| 20260901145215 | 61 | 242 | 4.3 | 7.0 | 0.00 | 0.01 | 0.00 | 71 | 1021.0 |
| 20260901144216 | 61 | 229 | 1.7 | 2.6 | 0.00 | 0.01 | 0.00 | 72 | 1020.9 |
| 20260901143216 | 61 | 218 | 1.7 | 4.3 | 0.00 | 0.01 | 0.00 | 72 | 1021.1 |
| 20260901142236 | 61 | 248 | 1.7 | 3.5 | 0.00 | 0.01 | 0.00 | 72 | 1021.1 |
| 20260901141216 | 61 | 226 | 3.5 | 4.3 | 0.00 | 0.01 | 0.00 | 72 | 1021.2 |
| 20260901140236 | 60 | 329 | 0.9 | 1.7 | 0.00 | 0.01 | 0.00 | 72 | 1020.6 |
| 20260901135216 | 59 | 329 | 0.0 | 1.7 | 0.00 | 0.01 | 0.00 | 74 | 1020.4 |
| 20260901134215 | 58 | 329 | 2.6 | 3.5 | 0.00 | 0.01 | 0.00 | 76 | 1020.0 |
| 20260901133256 | 58 | 329 | 0.9 | 1.7 | 0.00 | 0.01 | 0.00 | 76 | 1019.9 |
| 20260901132215 | 58 | 293 | 1.7 | 3.5 | 0.00 | 0.01 | 0.00 | 76 | 1019.9 |
| 20260901131216 | 57 | 293 | 0.9 | 1.7 | 0.00 | 0.01 | 0.00 | 78 | 1019.8 |
| 20260901130216 | 57 | 139 | 0.0 | 0.9 | 0.00 | 0.01 | 0.00 | 79 | 1019.4 |
| 20260901125216 | 56 | 86 | 1.7 | 6.1 | 0.00 | 0.01 | 0.00 | 79 | 1019.3 |
| 20260901124215 | 57 | 287 | 0.9 | 1.7 | 0.00 | 0.01 | 0.00 | 79 | 1019.6 |
| 20260901123236 | 56 | 281 | 2.6 | 3.5 | 0.00 | 0.01 | 0.00 | 80 | 1019.5 |
| 20260901122215 | 56 | 0.0 | 0.0 | 0.00 | 0.01 | 0.00 | 80 | 1019.6 | |
| 20260901121216 | 56 | 324 | 2.6 | 3.5 | 0.00 | 0.01 | 0.00 | 82 | 1019.6 |
| 20260901120216 | 56 | 324 | 1.7 | 2.6 | 0.00 | 0.01 | 0.00 | 81 | 1020.1 |
| 20260901115217 | 56 | 299 | 1.7 | 2.6 | 0.00 | 0.01 | 0.00 | 81 | 1020.3 |
| 20260901114215 | 56 | 299 | 2.6 | 3.5 | 0.00 | 0.01 | 0.00 | 80 | 1020.2 |
| 20260901113236 | 57 | 299 | 0.9 | 1.7 | 0.00 | 0.01 | 0.00 | 80 | 1020.1 |
| 20260901112215 | 57 | 0.0 | 0.9 | 0.00 | 0.01 | 0.00 | 80 | 1020.0 | |
| 20260901111255 | 57 | 299 | 1.7 | 2.6 | 0.00 | 0.01 | 0.00 | 80 | 1020.0 |
| 20260901110215 | 57 | 299 | 0.0 | 0.9 | 0.00 | 0.01 | 0.00 | 80 | 1021.4 |
| 20260901105215 | 57 | 0.0 | 0.0 | 0.00 | 0.01 | 0.00 | 81 | 1021.5 | |
| 20260901104215 | 56 | 299 | 1.7 | 2.6 | 0.00 | 0.01 | 0.00 | 80 | 1021.4 |
| 20260901103215 | 56 | 299 | 0.9 | 0.9 | 0.00 | 0.01 | 0.00 | 80 | 1021.6 |
| 20260901102218 | 57 | 302 | 0.0 | 1.7 | 0.00 | 0.01 | 0.00 | 79 | 1021.7 |
| 20260901101235 | 57 | 302 | 0.9 | 1.7 | 0.00 | 0.01 | 0.00 | 80 | 1021.6 |
| 20260901100215 | 57 | 302 | 1.7 | 2.6 | 0.00 | 0.01 | 0.00 | 80 | 1022.2 |
| 20260901095215 | 57 | 302 | 1.7 | 2.6 | 0.00 | 0.01 | 0.00 | 79 | 1022.4 |
| 20260901094215 | 57 | 302 | 2.6 | 3.5 | 0.00 | 0.01 | 0.00 | 78 | 1022.4 |
| 20260901093215 | 58 | 259 | 0.9 | 1.7 | 0.00 | 0.01 | 0.00 | 78 | 1023.1 |
| 20260901092215 | 57 | 22 | 0.9 | 1.7 | 0.00 | 0.01 | 0.00 | 79 | 1022.6 |
| 20260901091215 | 58 | 0.0 | 0.9 | 0.00 | 0.01 | 0.00 | 79 | 1022.9 | |
| 20260901090235 | 58 | 252 | 0.9 | 2.6 | 0.00 | 0.01 | 0.00 | 79 | 1022.6 |
| 20260901085215 | 58 | 265 | 3.5 | 6.1 | 0.00 | 0.01 | 0.00 | 79 | 1022.4 |
| 20260901084235 | 58 | 246 | 4.3 | 6.1 | 0.00 | 0.01 | 0.00 | 79 | 1022.6 |
| 20260901083215 | 58 | 255 | 5.2 | 7.8 | 0.00 | 0.01 | 0.00 | 79 | 1022.7 |
| 20260901082217 | 58 | 256 | 3.5 | 6.1 | 0.00 | 0.01 | 0.00 | 79 | 1022.8 |
| 20260901081215 | 58 | 254 | 5.2 | 7.0 | 0.00 | 0.01 | 0.00 | 79 | 1022.7 |
| 20260901080215 | 58 | 255 | 3.5 | 6.1 | 0.00 | 0.01 | 0.00 | 78 | 1022.7 |
| 20260901075235 | 58 | 257 | 3.5 | 7.8 | 0.00 | 0.01 | 0.00 | 79 | 1022.7 |
| 20260901074217 | 59 | 248 | 3.5 | 4.3 | 0.00 | 0.01 | 0.00 | 78 | 1022.6 |
| 20260901073217 | 59 | 240 | 1.7 | 3.5 | 0.00 | 0.01 | 0.00 | 77 | 1022.5 |
| 20260901072217 | 59 | 250 | 4.3 | 6.1 | 0.00 | 0.01 | 0.00 | 78 | 1022.6 |
| 20260901071217 | 59 | 252 | 6.1 | 7.0 | 0.00 | 0.01 | 0.00 | 78 | 1022.4 |
| 20260901070217 | 59 | 253 | 6.1 | 8.7 | 0.00 | 0.01 | 0.00 | 78 | 1022.3 |
| 20260901065217 | 59 | 260 | 5.2 | 7.8 | 0.00 | 0.01 | 0.00 | 78 | 1022.4 |
| 20260901064216 | 59 | 267 | 3.5 | 5.2 | 0.00 | 0.01 | 0.00 | 79 | 1022.4 |
| 20260901063217 | 59 | 264 | 5.2 | 6.1 | 0.00 | 0.01 | 0.00 | 79 | 1021.7 |
| 20260901062217 | 59 | 259 | 4.3 | 6.1 | 0.00 | 0.01 | 0.00 | 79 | 1021.7 |
| 20260901061217 | 59 | 266 | 8.7 | 9.6 | 0.00 | 0.01 | 0.00 | 78 | 1021.9 |
| 20260901060216 | 59 | 258 | 5.2 | 8.7 | 0.00 | 0.01 | 0.00 | 78 | 1021.8 |
| 20260901055216 | 59 | 258 | 6.1 | 8.7 | 0.00 | 0.01 | 0.01 | 78 | 1021.8 |
| 20260901054216 | 60 | 261 | 4.3 | 7.0 | 0.00 | 0.01 | 0.01 | 78 | 1022.0 |
| 20260901053216 | 60 | 261 | 2.6 | 3.5 | 0.00 | 0.01 | 0.01 | 78 | 1021.9 |
| 20260901052216 | 60 | 272 | 4.3 | 7.0 | 0.00 | 0.01 | 0.01 | 78 | 1022.1 |
| 20260901051216 | 60 | 0 | 0.9 | 1.7 | 0.00 | 0.01 | 0.01 | 80 | 1022.2 |
| 20260901050216 | 59 | 0 | 0.9 | 2.6 | 0.00 | 0.01 | 0.01 | 80 | 1021.9 |
| 20260901045216 | 60 | 0 | 3.5 | 4.3 | 0.00 | 0.01 | 0.01 | 79 | 1022.0 |
| 20260901044235 | 60 | 91 | 0.0 | 0.9 | 0.00 | 0.01 | 0.01 | 78 | 1022.4 |
| 20260901043216 | 60 | 101 | 1.7 | 2.6 | 0.00 | 0.01 | 0.01 | 79 | 1022.2 |
| 20260901042236 | 59 | 127 | 0.9 | 2.6 | 0.00 | 0.01 | 0.01 | 80 | 1022.2 |
| 20260901041215 | 59 | 255 | 0.0 | 0.9 | 0.00 | 0.01 | 0.01 | 81 | 1022.4 |
| 20260901040236 | 59 | 255 | 2.6 | 4.3 | 0.00 | 0.01 | 0.01 | 81 | 1022.2 |
| 20260901035216 | 59 | 273 | 3.5 | 5.2 | 0.00 | 0.01 | 0.01 | 80 | 1022.3 |
| 20260901033216 | 59 | 265 | 5.2 | 7.8 | 0.00 | 0.01 | 0.01 | 80 | 1022.0 |
| 20260901032235 | 59 | 262 | 5.2 | 7.8 | 0.00 | 0.01 | 0.01 | 80 | 1022.0 |
| 20260901031215 | 59 | 240 | 4.3 | 6.1 | 0.00 | 0.01 | 0.01 | 80 | 1022.0 |
| 20260901030215 | 59 | 249 | 4.3 | 7.0 | 0.00 | 0.01 | 0.01 | 81 | 1021.5 |
| 20260901025215 | 60 | 246 | 6.1 | 8.7 | 0.00 | 0.01 | 0.01 | 84 | 1021.5 |
| 20260901024215 | 60 | 153 | 0.9 | 1.7 | 0.00 | 0.01 | 0.01 | 83 | 1021.1 |
| 20260901023236 | 60 | 152 | 0.9 | 2.6 | 0.00 | 0.01 | 0.01 | 83 | 1020.4 |
| 20260901022215 | 60 | 152 | 2.6 | 4.3 | 0.00 | 0.01 | 0.01 | 82 | 1020.4 |
| 20260901021215 | 61 | 101 | 4.3 | 7.8 | 0.00 | 0.01 | 0.01 | 80 | 1020.7 |
| 20260901020215 | 61 | 124 | 5.2 | 9.6 | 0.00 | 0.01 | 0.01 | 75 | 1020.2 |
| 20260901015215 | 62 | 93 | 3.5 | 7.8 | 0.00 | 0.01 | 0.01 | 74 | 1020.6 |